User: anonymous   Login
Location: Unspecified
(0.0000°N, 0.0000°E)
Time: 20:06:45
(UTC+00:00)
Language:

DSP F5R - Orbit

View from above orbital plane
View from above orbital plane
View from above satellite
View from above satellite

Ground track
Ground track

The orbit data is extracted from the following two-line orbital elements,

1 18583U 87097A   19030.39482742 0.00000000  00000-0  00000-0 0    01
2 18583  14.3079 357.4766 0020832 215.2490 144.6252  0.98384956    03
Epoch (UTC): 30 January 2019 09:28:33
Eccentricity: 0.0020832
inclination: 14.3079°
perigee height: 36234 km
apogee height: 36412 km
right ascension of ascending node: 357.4766°
argument of perigee: 215.2490°
revolutions per day: 0.98384956
mean anomaly at epoch: 144.6252°
orbit number at epoch: 0

The dashed part of the orbit path shows where the satellite is in the earth's shadow,  

DLR